Regional Weather Roundup
Issued by NWS

Home | Current Version | Previous Version | Graphics & Text | Print | Product List | Glossary On
Versions: 1 2 3 4 5 6 7 8 9 10 11 12 13 14 15 16 17 18 19 20 21 22 23 24 25 26 27 28 29 30 31 32 33 34 35 36 37 38 39 40 41 42 43 44 45 46 47 48 49 50
000
ASUS43 KBIS 201310
RWRND

NORTH DAKOTA REGIONAL WEATHER ROUNDUP
NATIONAL WEATHER SERVICE BISMARCK ND
800 AM CDT FRI OCT 20 2017

NOTE: "FAIR" INDICATES FEW OR NO CLOUDS BELOW 12,000 FEET WITH NO
SIGNIFICANT WEATHER AND/OR OBSTRUCTIONS TO VISIBILITY.


NDZ001>003-009>011-017-201400-
NORTHWEST NORTH DAKOTA

CITY           SKY/WX    TMP DP  RH WIND       PRES   REMARKS
WILLISTON      CLOUDY    33  29  85 NE5       29.40F
MINOT          CLOUDY    36  33  89 CALM      29.42F
MINOT AFB      CLOUDY    33  30  89 SE5       29.41F
$$

NDZ018>021-031>035-040>046-201400-
SOUTHWEST NORTH DAKOTA

CITY           SKY/WX    TMP DP  RH WIND       PRES   REMARKS
BISMARCK       PTCLDY    52  47  83 SE12      29.47F
DICKINSON      CLOUDY    44  27  51 S12       29.42F
GARRISON         N/A     41  39  93 E6        29.44F
HETTINGER ARPT CLOUDY    44  26  49 S5        29.48F
$$

NDZ004>008-012>016-024-026-027-054-201400-
NORTHEAST NORTH DAKOTA

CITY           SKY/WX    TMP DP  RH WIND       PRES   REMARKS
GRAND FORKS    PTCLDY    50  47  89 S10       29.58F
GRND FRKS AFB  CLEAR     48  46  93 S10       29.57F
DEVILS LAKE    CLEAR     46  44  93 SE8       29.51
$$

NDZ022-023-025-028>030-036>039-047>053-201400-
SOUTHEAST NORTH DAKOTA

CITY           SKY/WX    TMP DP  RH WIND       PRES   REMARKS
FARGO          CLEAR     58  49  72 SE21G29   29.61F
JAMESTOWN      CLEAR     51  46  83 S17       29.54F
$$





USA.gov is the U.S. government's official web portal to all federal, state and local government web resources and services.